Time,TemperatureF,DewpointF,PressureIn,WindDirection,WindDirectionDegrees,WindSpeedMPH,WindSpeedGustMPH,Humidity,HourlyPrecipIn,Conditions,Clouds,dailyrainin,SoftwareType,DateUTC
2013-05-10 00:02:00,64.0,61.0,29.92,NE,48,12.0,-999.0,91,0.52,,,0.07,,2013-05-10 05:02:00,
2013-05-10 00:12:00,64.0,62.0,29.91,NE,46,6.0,-999.0,93,0.10,,,0.09,,2013-05-10 05:12:00,
2013-05-10 00:22:00,64.0,62.0,29.91,NE,46,6.0,-999.0,93,0.10,,,0.09,,2013-05-10 05:22:00,
2013-05-10 00:32:00,63.0,61.0,29.89,NE,51,5.0,-999.0,92,0.04,,,0.00,,2013-05-10 05:32:00,
2013-05-10 00:42:00,63.0,60.0,29.88,NE,54,9.0,-999.0,91,0.00,,,0.00,,2013-05-10 05:42:00,
2013-05-10 00:52:00,63.0,60.0,29.88,NE,54,9.0,-999.0,91,0.00,,,0.00,,2013-05-10 05:52:00,
2013-05-10 01:01:00,63.0,61.0,29.87,East,85,5.0,-999.0,92,0.00,,,0.00,,2013-05-10 06:01:00,
2013-05-10 01:12:00,63.0,61.0,29.88,East,84,5.0,-999.0,92,0.00,,,0.00,,2013-05-10 06:12:00,
2013-05-10 01:21:00,63.0,61.0,29.88,East,84,5.0,-999.0,92,0.00,,,0.00,,2013-05-10 06:21:00,
2013-05-10 01:32:00,63.0,61.0,29.88,East,85,5.0,-999.0,93,0.00,,,0.00,,2013-05-10 06:32:00,
2013-05-10 01:42:00,63.0,61.0,29.88,East,85,5.0,-999.0,93,0.00,,,0.00,,2013-05-10 06:42:00,
2013-05-10 01:52:00,63.0,61.0,29.88,East,86,0.0,-999.0,93,0.00,,,0.00,,2013-05-10 06:52:00,
2013-05-10 02:01:00,62.0,60.0,29.87,East,101,2.0,-999.0,93,0.00,,,0.00,,2013-05-10 07:01:00,
2013-05-10 02:12:00,62.0,60.0,29.87,East,101,2.0,-999.0,93,0.00,,,0.00,,2013-05-10 07:12:00,
2013-05-10 02:22:00,62.0,60.0,29.86,East,101,2.0,-999.0,93,0.00,,,0.00,,2013-05-10 07:22:00,
2013-05-10 02:31:00,62.0,60.0,29.86,East,101,2.0,-999.0,93,0.00,,,0.00,,2013-05-10 07:31:00,
2013-05-10 02:42:00,63.0,61.0,29.85,SSE,165,3.0,-999.0,94,0.00,,,0.00,,2013-05-10 07:42:00,
2013-05-10 02:52:00,63.0,61.0,29.85,SSE,165,3.0,-999.0,94,0.00,,,0.00,,2013-05-10 07:52:00,
2013-05-10 03:02:00,63.0,61.0,29.84,South,183,4.0,-999.0,94,0.00,,,0.00,,2013-05-10 08:02:00,
2013-05-10 03:12:00,63.0,61.0,29.84,South,183,4.0,-999.0,94,0.00,,,0.00,,2013-05-10 08:12:00,
2013-05-10 03:22:00,63.0,61.0,29.83,SSW,196,2.0,-999.0,94,0.00,,,0.00,,2013-05-10 08:22:00,
2013-05-10 03:32:00,63.0,61.0,29.83,SSW,196,1.0,-999.0,94,0.00,,,0.00,,2013-05-10 08:32:00,
2013-05-10 03:42:00,64.0,63.0,29.83,SSW,196,0.0,-999.0,95,0.00,,,0.00,,2013-05-10 08:42:00,
2013-05-10 03:52:00,64.0,63.0,29.83,SSW,196,0.0,-999.0,95,0.00,,,0.00,,2013-05-10 08:52:00,
2013-05-10 04:01:00,64.0,62.0,29.83,SSW,196,2.0,-999.0,94,0.00,,,0.00,,2013-05-10 09:01:00,
2013-05-10 04:11:00,64.0,62.0,29.83,SSW,196,2.0,-999.0,94,0.00,,,0.00,,2013-05-10 09:11:00,
2013-05-10 04:21:00,64.0,62.0,29.82,SSW,196,1.0,-999.0,94,0.00,,,0.00,,2013-05-10 09:21:00,
2013-05-10 04:32:00,65.0,63.0,29.82,West,264,4.0,-999.0,94,0.00,,,0.00,,2013-05-10 09:32:00,
2013-05-10 04:42:00,65.0,63.0,29.82,West,264,4.0,-999.0,94,0.00,,,0.00,,2013-05-10 09:42:00,
2013-05-10 04:52:00,65.0,63.0,29.81,West,265,2.0,-999.0,94,0.00,,,0.00,,2013-05-10 09:52:00,
2013-05-10 05:02:00,65.0,63.0,29.81,West,267,1.0,-999.0,94,0.00,,,0.00,,2013-05-10 10:02:00,
2013-05-10 05:12:00,65.0,63.0,29.81,West,267,1.0,-999.0,94,0.00,,,0.00,,2013-05-10 10:12:00,
2013-05-10 05:23:00,66.0,64.0,29.80,WSW,240,1.0,-999.0,94,0.00,,,0.00,,2013-05-10 10:23:00,
2013-05-10 05:32:00,66.0,64.0,29.80,WSW,240,2.0,-999.0,94,0.00,,,0.00,,2013-05-10 10:32:00,
2013-05-10 05:42:00,66.0,64.0,29.80,WSW,240,2.0,-999.0,94,0.00,,,0.00,,2013-05-10 10:42:00,
2013-05-10 05:52:00,66.0,64.0,29.80,WSW,240,1.0,-999.0,94,0.00,,,0.00,,2013-05-10 10:52:00,
2013-05-10 06:02:00,67.0,65.0,29.80,NW,322,3.0,-999.0,94,0.00,,,0.00,,2013-05-10 11:02:00,
2013-05-10 06:12:00,66.0,64.0,29.85,NNW,340,9.0,-999.0,94,0.00,,,0.00,,2013-05-10 11:12:00,
2013-05-10 06:21:00,66.0,64.0,29.85,NNW,340,9.0,-999.0,94,0.00,,,0.00,,2013-05-10 11:21:00,
2013-05-10 06:32:00,66.0,65.0,29.86,NW,322,7.0,-999.0,95,0.00,,,0.00,,2013-05-10 11:32:00,
2013-05-10 06:42:00,67.0,65.0,29.85,NNE,33,6.0,-999.0,94,0.00,,,0.00,,2013-05-10 11:42:00,
2013-05-10 06:51:00,67.0,65.0,29.85,NNE,33,6.0,-999.0,94,0.00,,,0.00,,2013-05-10 11:51:00,
2013-05-10 07:01:00,67.0,65.0,29.86,North,360,3.0,-999.0,92,0.11,,,0.02,,2013-05-10 12:01:00,
2013-05-10 07:11:00,67.0,65.0,29.86,North,360,3.0,-999.0,92,0.11,,,0.02,,2013-05-10 12:11:00,
2013-05-10 07:21:00,67.0,65.0,29.87,NNE,31,1.0,-999.0,92,0.00,,,0.02,,2013-05-10 12:21:00,
2013-05-10 07:32:00,67.0,65.0,29.88,NNW,331,5.0,-999.0,92,0.00,,,0.03,,2013-05-10 12:32:00,
2013-05-10 07:42:00,67.0,65.0,29.88,NNW,331,5.0,-999.0,92,0.00,,,0.03,,2013-05-10 12:42:00,
2013-05-10 07:52:00,67.0,64.0,29.94,West,270,12.0,-999.0,89,0.00,,,0.03,,2013-05-10 12:52:00,
2013-05-10 08:01:00,63.0,59.0,29.89,NW,319,26.0,-999.0,88,0.27,,,0.29,,2013-05-10 13:01:00,
2013-05-10 08:11:00,63.0,59.0,29.89,NW,319,26.0,-999.0,88,0.27,,,0.29,,2013-05-10 13:11:00,
2013-05-10 08:21:00,63.0,59.0,29.89,NW,319,26.0,-999.0,88,0.27,,,0.29,,2013-05-10 13:21:00,
2013-05-10 08:32:00,63.0,59.0,29.89,NW,319,26.0,-999.0,88,0.27,,,0.29,,2013-05-10 13:32:00,
2013-05-10 08:41:00,63.0,59.0,29.89,NW,319,26.0,-999.0,88,0.27,,,0.29,,2013-05-10 13:41:00,